#timestamp,LO_Frequency,Hit,StdDev 
1615402815.6,286046999.8,N
1615402835.4,286046999.6,N
1615402885.3,286046993.7,E
1615402895.2,286046995.5,N
1615402915.1,286047001.7,P
1615402916.0,286047001.7,N
1615402935.8,286047003.5,N
1615402955.6,286047004.3,N
1615402975.5,286047003.9,N
1615402995.3,286047003.1,N
1615403015.2,286047002.2,N
1615403035.9,286047002.7,N
1615403055.7,286047000.4,N
1615403075.6,286047000.9,N
1615403095.4,286047001.1,N
1615403115.2,286047000.1,N
1615403135.1,286047002.6,N
1615403136.0,286047002.6,N
1615403155.8,286046999.9,N
1615403175.7,286047000.0,N
1615403195.5,286047001.0,N
1615403215.3,286047002.1,N
1615403235.2,286047001.0,N
1615403255.0,286047000.6,N
1615403255.9,286047000.6,N
1615403275.7,286047000.6,N
1615403295.6,286046996.7,N
1615403315.4,286046998.6,N
1615403335.3,286046996.7,N
1615403355.1,286046996.7,N
1615403356.0,286046996.7,N
1615403375.8,286046998.4,N
1615403395.7,286046996.7,N
1615403415.5,286046998.6,N
1615403435.3,286047000.1,N
1615403455.2,286047002.3,N
1615403475.0,286046999.4,N
1615403475.9,286046999.4,N
1615403495.8,286046998.1,N
1615403515.6,286046998.4,N
1615403535.4,286047000.0,N
1615403555.3,286046998.8,N
1615403575.1,286046998.6,N
1615403595.8,286046998.9,N
1615403615.7,286046999.5,N
1615403635.5,286046998.5,N
1615403655.4,286046997.2,N
1615403675.2,286046995.8,N
1615403695.0,286046998.0,N
1615403695.9,286046998.0,N
1615403715.8,286046999.5,N
1615403735.6,286046999.6,N
1615403755.4,286046997.1,N
1615403775.3,286046996.6,N
1615403795.1,286046998.3,N
1615403815.9,286046998.1,N
1615403835.7,286047001.9,N
1615403855.5,286047002.1,N
1615403875.4,286046999.8,N
1615403895.2,286047002.6,N
1615403915.0,286046998.9,N
1615403915.9,286046998.9,N
1615403935.8,286046997.7,N
1615403955.6,286046995.4,N
1615403975.4,286046996.2,N
1615403995.3,286046995.9,N
1615404015.1,286046996.1,N
1615404035.9,286046996.5,N
1615404055.7,286046997.4,N
1615404075.5,286046998.0,N
1615404095.4,286046994.0,Y
1615404115.2,286046999.5,P
1615404135.0,286047000.8,N
1615404136.0,286047000.8,N
1615404185.8,286046998.6,E
1615404195.7,286046998.4,N
1615404215.6,286047000.0,P
1615404235.4,286047002.1,N
1615404255.2,286047002.6,N
1615404275.1,286047000.1,N
1615404276.0,286047000.1,N
1615404295.8,286046999.8,N
1615404315.7,286047002.6,N
1615404335.5,286047002.3,N
1615404355.3,286047000.0,N
1615404375.2,286047000.0,N
1615404395.0,286046999.8,N
1615404395.9,286046999.8,N
1615404415.7,286047000.9,N
1615404435.6,286047002.8,N
1615404455.4,286046999.9,N
1615404475.3,286047000.0,N
1615404495.1,286046998.2,N
1615404496.0,286046998.2,N
1615404515.8,286046998.2,N
1615404535.7,286046998.8,N
1615404555.5,286046998.4,N
1615404575.3,286046999.3,N
1615404595.2,286047001.2,N
1615404615.0,286047000.4,N
1615404615.9,286047000.4,N
1615404635.8,286047000.7,N
1615404655.6,286047000.8,N
1615404675.4,286046998.7,N
1615404695.3,286047000.0,N
1615404715.1,286046999.7,N
1615404735.8,286047002.7,N
1615404755.7,286047002.0,N
1615404775.5,286047002.5,N
1615404795.4,286047002.0,N
1615404815.2,286047001.6,N
1615404835.0,286047001.0,N
1615404835.9,286047001.0,N
1615404855.8,286046999.2,N
1615404875.6,286046999.4,N
1615404895.5,286047000.6,N
1615404915.3,286047002.2,N
1615404935.1,286047002.7,N
1615404955.9,286047001.6,N
1615404975.7,286047004.2,N
1615404995.5,286047001.7,N
1615405015.4,286047000.9,N
1615405035.2,286047001.0,N
1615405055.1,286046999.3,N
1615405056.0,286046999.3,N
1615405075.8,286047000.4,N
1615405095.6,286047000.3,N
1615405115.5,286047002.3,N
1615405135.3,286047001.3,N
1615405155.1,286047002.6,N
1615405175.9,286047000.3,N
1615405195.7,286046998.2,N
1615405215.5,286047000.7,N
1615405235.4,286047002.6,N
1615405255.2,286047000.1,N
1615405275.1,286047002.4,N
1615405276.0,286047002.4,N
1615405295.8,286047002.4,N
1615405315.6,286046998.6,N
1615405335.5,286046995.1,Y
1615405355.3,286046999.5,P
1615405375.2,286046997.4,P
1615405395.9,286046998.9,N
1615405415.7,286047001.1,N
1615405435.6,286046998.6,N
1615405455.4,286046999.4,N
1615405475.2,286046998.8,N
1615405495.1,286046998.7,N
1615405496.0,286046998.7,N
1615405515.8,286046998.6,N
1615405535.7,286046999.0,N
1615405555.5,286047002.0,N
1615405575.3,286047004.0,Y
1615405595.2,286047003.1,P
1615405615.0,286047005.0,N
1615405615.9,286047005.0,N
1615405635.7,286047004.5,N
1615405655.6,286047005.2,N
1615405675.4,286047003.9,N
1615405695.3,286047003.6,N
1615405715.1,286047005.1,N
1615405716.0,286047005.1,N
1615405735.8,286047003.4,N
1615405755.7,286047005.3,Y
1615405775.5,286047000.4,P
1615405795.3,286047001.5,N
1615405815.2,286047002.0,N
1615405835.0,286047004.3,Y
1615405835.9,286047004.3,P
1615405855.8,286047001.9,N
1615405875.6,286047003.3,N
1615405895.4,286047004.6,Y
1615405915.3,286047003.9,P
1615405935.1,286047001.5,N
1615405955.8,286047001.4,N
1615405975.7,286047002.3,N
1615405995.5,286047002.5,N
1615406015.4,286046999.4,N
1615406035.2,286046999.9,N
1615406055.0,286047002.5,N
1615406055.9,286047002.5,N
1615406075.8,286047002.7,N
1615406095.6,286047002.4,N
1615406115.4,286046999.9,N
1615406135.3,286047003.2,N
1615406155.1,286047002.6,N
1615406175.9,286047000.9,N
1615406195.7,286047000.1,N
1615406215.5,286046999.7,N
1615406235.4,286047002.4,N
1615406255.2,286047005.7,Y
1615406275.0,286047003.1,P
1615406275.9,286047003.1,P
1615406295.8,286046999.8,N
1615406315.6,286047000.7,N
1615406335.5,286047001.5,N
1615406355.3,286047001.6,N
1615406375.1,286047000.5,N
1615406395.9,286047001.4,N
